Weather History for Toulouse, France

Change the Weather History Date:

Monday, July 1, 2013

  Actual Average Record
Temperature  
Mean Temperature 71 °F -  
Max Temperature 85 °F 80 °F 93 °F (1999)
Min Temperature 57 °F 60 °F 53 °F (2002)
Cooling Degree Days 6    
Growing Degree Days 21 (Base 50)    
Moisture  
Dew Point 59 °F    
Average Humidity 66    
Maximum Humidity 94    
Minimum Humidity 40    
Precipitation  
Precipitation 0.00 in 0.05 in - ()
Sea Level Pressure  
Sea Level Pressure 30.05 in    
Wind  
Wind Speed 4 mph ()    
Max Wind Speed 10 mph    
Max Gust Speed -    
Visibility 6.3 miles    
Events Rain    
Averages and records for this station are not official NWS values.
T = Trace of Precipitation, MM = Missing Value Source: Averaged Metar Reports

Daily Weather History Graph

Daily Weather History Graph

Search for Another Location

Airport:

Trip Planner

Search our weather history database for the weather conditions in past years. The results will help you decide how hot, cold, wet, or windy it might be!

Date:

Astronomy

Jul. 01, 2013 Rise Set
Actual Time 6:16 AM CEST 9:39 PM CEST
Civil Twilight 5:41 AM CEST 10:15 PM CEST
Nautical Twilight 4:54 AM CEST 11:01 PM CEST
Astronomical Twilight 3:56 AM CEST 11:59 PM CEST
Moon 1:46 AM CEST (7/1) 3:33 PM CEST (7/1)
Length of Visible Light 16h 34m
Length of Day
15h 22m
Last Quarter, 38% of the Moon is Illuminated
Jul 1
Last Quarter
Jul 8
New
Jul 16
First Quarter
Jul 22
Full
Jul 29
Last Quarter

Hourly Weather History & Observations

Time (CEST) Temp. Heat Index Dew Point Humidity Pressure Visibility Wind Dir Wind Speed Gust Speed Precip Events Conditions
12:00 AM 68.0 °F - 59.0 °F 73% 30.12 in 6.2 mi NW 4.6 mph - N/A   Unknown
12:30 AM 68.0 °F - 59.0 °F 73% 30.12 in 6.2 mi NW 4.6 mph - N/A   Unknown
1:00 AM 66.2 °F - 57.2 °F 73% 30.12 in 6.2 mi NW 3.5 mph - N/A   Unknown
1:30 AM 66.2 °F - 57.2 °F 73% 30.09 in 6.2 mi NW 3.5 mph - N/A   Unknown
2:00 AM 66 °F - 58 °F 68% 30.10 in 34 mi WNW 2.3 mph - -   Clear
2:00 AM 66.2 °F - 57.2 °F 73% 30.09 in 6.2 mi WNW 2.3 mph - N/A   Unknown
2:30 AM 62.6 °F - 57.2 °F 82% 30.09 in 6.2 mi South 3.5 mph - N/A   Unknown
3:00 AM 62.6 °F - 59.0 °F 88% 30.09 in 6.2 mi SSW 3.5 mph - N/A   Unknown
3:30 AM 60.8 °F - 57.2 °F 88% 30.06 in 6.2 mi SSW 5.8 mph - N/A   Unknown
4:00 AM 60.8 °F - 57.2 °F 88% 30.06 in 6.2 mi SSW 4.6 mph - N/A   Unknown
4:30 AM 59.0 °F - 57.2 °F 94% 30.06 in 6.2 mi SSW 4.6 mph - N/A   Unknown
5:00 AM 59.0 °F - 57.2 °F 94% 30.06 in 6.2 mi South 4.6 mph - N/A   Unknown
5:30 AM 59.0 °F - 57.2 °F 94% 30.06 in 6.2 mi South 3.5 mph - N/A   Unknown
6:00 AM 59.0 °F - 57.2 °F 94% 30.06 in 6.2 mi South 3.5 mph - N/A   Unknown
6:30 AM 59.0 °F - 57.2 °F 94% 30.06 in 6.2 mi South 2.3 mph - N/A   Partly Cloudy
7:00 AM 59.0 °F - 57.2 °F 94% 30.06 in 6.2 mi South 3.5 mph - N/A   Partly Cloudy
7:30 AM 60.8 °F - 57.2 °F 88% 30.06 in 6.2 mi Variable 3.5 mph - N/A   Partly Cloudy
8:00 AM 61 °F - 58 °F 85% 30.08 in 12 mi South 4.6 mph - -   Scattered Clouds
8:00 AM 60.8 °F - 57.2 °F 88% 30.06 in 6.2 mi South 4.6 mph - N/A   Unknown
8:30 AM 62.6 °F - 59.0 °F 88% 30.06 in 6.2 mi South 3.5 mph - N/A   Partly Cloudy
9:00 AM 66.2 °F - 59.0 °F 78% 30.06 in 6.2 mi Variable 2.3 mph - N/A   Partly Cloudy
9:30 AM 69.8 °F - 60.8 °F 73% 30.06 in 6.2 mi Variable 1.2 mph - N/A   Unknown
10:00 AM 71.6 °F - 59.0 °F 64% 30.06 in 6.2 mi Calm Calm - N/A   Mostly Cloudy
10:30 AM 73.4 °F - 60.8 °F 65% 30.06 in 6.2 mi Variable 1.2 mph - N/A   Unknown
11:00 AM 75.2 °F - 59.0 °F 57% 30.06 in 6.2 mi Variable 1.2 mph - N/A   Unknown
11:30 AM 77.0 °F - 60.8 °F 57% 30.06 in 6.2 mi Variable 2.3 mph - N/A   Unknown
12:00 PM 77.0 °F - 60.8 °F 57% 30.06 in 6.2 mi Variable 3.5 mph - N/A   Partly Cloudy
12:30 PM 78.8 °F - 59.0 °F 51% 30.06 in 6.2 mi Variable 3.5 mph - N/A   Partly Cloudy
1:00 PM 78.8 °F - 59.0 °F 51% 30.04 in 6.2 mi North 4.6 mph - N/A   Partly Cloudy
1:30 PM 78.8 °F - 59.0 °F 51% 30.04 in 6.2 mi NE 3.5 mph - N/A   Unknown
2:00 PM 81 °F - 61 °F 40% 30.02 in 25 mi East 3.5 mph - -   Scattered Clouds
2:00 PM 80.6 °F 81.5 °F 60.8 °F 51% 30.04 in 6.2 mi Variable 3.5 mph - N/A   Unknown
2:30 PM 80.6 °F 81.1 °F 59.0 °F 48% 30.04 in 6.2 mi SE 4.6 mph - N/A   Unknown
3:00 PM 82.4 °F 82.5 °F 59.0 °F 45% 30.01 in 6.2 mi NNE 5.8 mph - N/A   Unknown
3:30 PM 82.4 °F 82.9 °F 60.8 °F 48% 30.01 in 6.2 mi NNE 6.9 mph - N/A   Unknown
4:00 PM 82.4 °F 82.5 °F 59.0 °F 45% 30.01 in 6.2 mi Variable 3.5 mph - N/A   Unknown
4:30 PM 84.2 °F 84.4 °F 60.8 °F 45% 30.01 in 6.2 mi North 4.6 mph - N/A   Unknown
5:00 PM 86.0 °F 86.1 °F 60.8 °F 43% 30.01 in 6.2 mi Variable 3.5 mph - N/A   Unknown
5:30 PM 84.2 °F 83.8 °F 59.0 °F 42% 30.01 in 6.2 mi NNW 4.6 mph - N/A   Unknown
6:00 PM 84.2 °F 83.8 °F 59.0 °F 42% 30.01 in 6.2 mi Variable 3.5 mph - N/A   Mist
6:30 PM 82.4 °F 82.5 °F 59.0 °F 45% 29.98 in 6.2 mi NW 6.9 mph - N/A   Mist
7:00 PM 80.6 °F 81.1 °F 59.0 °F 48% 30.01 in 6.2 mi West 4.6 mph - N/A   Unknown
7:30 PM 80.6 °F 81.1 °F 59.0 °F 48% 30.01 in 6.2 mi SW 10.4 mph - N/A   Overcast
8:00 PM 77 °F - 60 °F 45% 29.98 in 34 mi SSW 10.4 mph - -   Clear
8:00 PM 77.0 °F - 59.0 °F 54% 29.98 in 6.2 mi SSW 10.4 mph - N/A   Unknown
8:30 PM 75.2 °F - 60.8 °F 61% 30.01 in 6.2 mi Variable 2.3 mph - N/A   Unknown
9:00 PM 75.2 °F - 60.8 °F 61% 30.01 in 6.2 mi Variable 2.3 mph - N/A Rain Light Rain
9:30 PM 73.4 °F - 60.8 °F 65% 30.01 in 6.2 mi South 5.8 mph - N/A   Unknown
10:00 PM 73.4 °F - 60.8 °F 65% 30.01 in 6.2 mi Variable 2.3 mph - N/A   Unknown
10:30 PM 73.4 °F - 59.0 °F 61% 30.01 in 6.2 mi WNW 4.6 mph - N/A   Unknown
11:00 PM 71.6 °F - 60.8 °F 69% 30.01 in 6.2 mi South 4.6 mph - N/A   Unknown
11:30 PM 69.8 °F - 60.8 °F 73% 30.04 in 6.2 mi South 6.9 mph - N/A   Unknown